Antioch, TX

3:16 PM CDT on September 19, 2014 (GMT -0500)
Amateur Radio Station -- W5RYM | Change Station
CLOSE
Current Station
Personal Weather Station
Location: Joaquin, TX
Elevation: 283 ft
Nearby Weather Stations

Elev 283 ft 31.91 °N, 94.08 °W | Updated 0 second ago

Partly Cloudy
Partly Cloudy
86.7 °F
Feels Like 91 °F
N
5.8
Wind Variable Wind from ESE
Gusts 9.0 mph

Today
High -- | Low -- °F
--% Chance of Precip.
Yesterday
High -- | Low -- °F
Precip. -- in
7:02 AM 7:16 PM
Waning Crescent, 17% visible
Pressure 29.92 in
Visibility 10.0 miles
Clouds Few 3700 ft
Few 11000 ft
Heat Index 91 °F
Dew Point 69 °F
Humidity 57%
Rainfall 0.00 in
Snow Depth Not available.
UV 7 out of 12
Pollen 10.50 out of 12
Air Quality Not available.
Flu Activity Not available.
METAR KOCH 191955Z AUTO 10009KT 10SM FEW037 FEW110 31/21 A2992 RMK AO1

More Conditions Fewer Conditions

Pressure 29.92 in
Visibility 10.0 miles
Clouds Few 3700 ft
Few 11000 ft
Heat Index 91 °F
Dew Point 69 °F
Humidity 57%
Rainfall 0.00 in
Snow Depth Not available.
UV 7 out of 12
Pollen 10.50 out of 12
Air Quality Not available.
Flu Activity Not available.
METAR KOCH 191955Z AUTO 10009KT 10SM FEW037 FEW110 31/21 A2992 RMK AO1

More Conditions Fewer Conditions

Nowcast | as of 2:51 PM CDT on September 19, 2014

Scattered showers are developing over eastern Texas this afternoon. These storms are moving mainly to the northwest at 20 mph. Rainfall will be light ranging from near one tenth to a quarter of an inch as these storms pass over the area.

×

10-Day Weather Forecast

Almanac

Astronomy

Sep. 19, 2014 Rise Set
Actual Time 7:02 AM CDT 7:16 PM CDT
Civil Twilight 6:38 AM CDT 7:41 PM CDT
Nautical Twilight 6:09 AM CDT 8:09 PM CDT
Astronomical Twilight 5:40 AM CDT 8:38 PM CDT
Moon 3:00 AM CDT 4:35 PM CDT
Length of Visible Light 13h 02m
Length of Day
12h 14m
Tomorrow will be 1m 57s shorter.
Waning Crescent, 17% of the Moon is Illuminated
Today
Waning Crescent
Sep 24
New
Oct 1
First Quarter
Oct 8
Full
Oct 15
Last Quarter

Today's Extremes

State Highs State Lows

Community

WunderPhotos

Upload Photos

1,754,692 photos uploaded!

WunderBlogs® & News

By Dr. Jeff Masters
Director of Meteorology, Weather Underground
By Kari Strenfel
Meteorologist, Weather Underground
By Christopher C. Burt
Weather Historian, Weather Underground
September 19, 2014
September 19, 2014
September 19, 2014

Nearby

Snow Depth

Station Depth Elevation
No new snow has been reported.

Earthquake Activity

City Distance Mag. Time & Date
No recent earthquake activity has been reported nearby.
Minimum magnitude displayed is 2.5.

Coastal Water Temperatures

Place Temperature
No Stations Reporting

Nearby Weather Stations